CW2074 Weather Reports


Display with metric or nautical units.
time (UTC)temp
F
wind
direction
speed
MPH
gust
MPH
rain 1hr
in
rain 24hr
in
rain mn
in
humidity
%
barometer
mb
20180814134713 75 203 0.0 0.0 0.00 0.00 0.00 86 1015.5
20180814133046 73 229 0.0 0.0 0.00 0.00 0.00 89 1015.5
20180814131421 71 187 0.0 0.0 0.00 0.00 0.00 90 1015.6
20180814125750 70 148 0.0 0.0 0.00 0.00 0.00 91 1015.5
20180814124139 69 148 0.0 0.0 0.00 0.00 0.00 91 1015.5
20180814122500 68 148 0.0 0.0 0.00 0.00 0.00 90 1015.3
20180814120727 67 148 0.0 0.0 0.00 0.00 0.00 90 1015.1
20180814115111 66 148 0.0 0.0 0.00 0.00 0.00 91 1015.1
20180814113520 66 148 0.0 0.0 0.00 0.00 0.00 91 1015.0
20180814111807 66 148 0.0 0.0 0.00 0.00 0.00 91 1014.9
20180814110206 66 148 0.0 0.0 0.00 0.00 0.00 91 1014.7
20180814104507 66 148 0.0 0.0 0.00 0.00 0.00 91 1014.5
20180814102856 66 148 0.0 0.0 0.00 0.00 0.00 91 1014.5
20180814101244 66 148 0.0 0.0 0.00 0.00 0.00 91 1014.2
20180814095628 66 148 0.0 0.0 0.00 0.00 0.00 91 1014.1
20180814094007 66 148 0.0 0.0 0.00 0.00 0.00 91 1014.0
20180814092352 66 148 0.0 0.0 0.00 0.00 0.00 91 1013.9
20180814090648 66 148 0.0 0.0 0.00 0.00 0.00 91 1013.7
20180814085032 66 148 0.0 0.0 0.00 0.00 0.00 91 1013.5
20180814083430 67 148 0.0 0.0 0.00 0.00 0.00 91 1013.5
20180814081724 67 148 0.0 0.0 0.00 0.00 0.00 91 1013.5
20180814080051 67 148 0.0 0.0 0.00 0.00 0.00 91 1013.5
20180814074423 68 148 0.0 0.0 0.00 0.00 0.00 91 1013.7
20180814072734 68 148 0.0 0.0 0.00 0.00 0.00 91 1013.8
20180814071109 69 148 0.0 0.0 0.00 0.00 0.00 91 1013.8
20180814065444 69 148 0.0 0.0 0.00 0.00 0.00 91 1014.0
20180814063842 69 148 0.0 0.0 0.00 0.00 0.00 91 1013.7
20180814062242 70 148 0.0 0.0 0.00 0.00 0.00 91 1013.7
20180814060505 70 148 0.0 0.0 0.00 0.00 0.00 90 1014.1
20180814054904 70 148 0.0 0.0 0.00 0.00 0.00 90 1014.1
20180814053239 70 148 0.0 0.0 0.00 0.00 0.00 91 1014.1
20180814051624 70 148 0.0 0.0 0.00 0.00 0.00 90 1014.4
20180814050001 71 148 0.0 0.0 0.00 0.00 0.00 90 1014.4
20180814044332 71 148 0.0 0.0 0.00 0.00 0.00 90 1014.4
20180814042614 71 148 0.0 0.0 0.00 0.00 0.00 90 1014.3
20180814040953 72 148 0.0 0.0 0.00 0.00 0.00 90 1014.4
20180814035338 72 148 0.0 0.0 0.00 0.00 0.00 90 1014.3
20180814033727 72 148 0.0 0.0 0.00 0.00 0.00 90 1014.3
20180814032113 72 148 0.0 0.0 0.00 0.00 0.00 89 1014.2
20180814030402 73 148 0.0 0.0 0.00 0.00 0.00 88 1014.3
20180814024732 73 148 0.0 0.0 0.00 0.00 0.00 88 1014.3
20180814023117 73 148 0.0 0.0 0.00 0.00 0.00 88 1014.3
20180814021441 74 148 0.0 0.0 0.00 0.00 0.00 88 1014.3
20180814015840 74 148 0.0 0.0 0.00 0.00 0.00 87 1014.2
20180814014231 75 148 0.0 0.0 0.00 0.00 0.00 86 1014.0
20180814012620 75 148 0.0 0.0 0.00 0.00 0.00 86 1013.9
20180814010909 76 148 0.0 0.0 0.00 0.00 0.00 84 1013.9
20180814005250 77 150 0.0 0.0 0.00 0.00 0.00 82 1013.6
20180814003630 78 150 0.0 0.0 0.00 0.00 0.00 80 1013.4
20180814002015 79 150 0.0 0.0 0.00 0.00 0.00 78 1013.1
20180814000417 80 150 0.0 0.0 0.00 0.00 0.00 76 1012.9
20180813234707 81 150 0.0 0.0 0.00 0.00 0.00 73 1012.8
20180813233125 82 150 0.0 0.0 0.00 0.00 0.00 70 1012.6
20180813231456 83 150 0.0 0.0 0.00 0.00 0.00 67 1012.4
20180813225833 84 150 0.0 0.0 0.00 0.00 0.00 62 1012.5
20180813224122 85 150 0.0 0.0 0.00 0.00 0.00 62 1012.4
20180813222507 86 78 0.0 0.0 0.00 0.00 0.00 58 1012.4
20180813220913 87 90 0.0 0.0 0.00 0.00 0.00 58 1012.5
20180813215147 87 126 0.0 0.0 0.00 0.00 0.00 58 1012.5
20180813213517 88 146 0.0 0.0 0.00 0.00 0.00 55 1012.6
20180813211850 88 140 0.0 0.0 0.00 0.00 0.00 54 1012.8
20180813210302 89 121 0.0 0.0 0.00 0.00 0.00 57 1013.0
20180813204635 88 105 0.0 0.0 0.00 0.00 0.00 56 1013.2
20180813203008 88 185 0.0 0.0 0.00 0.00 0.00 56 1013.2
20180813201253 90 103 0.0 0.0 0.00 0.00 0.00 55 1013.3
20180813195627 90 240 0.0 0.0 0.00 0.00 0.00 58 1013.4
20180813193947 89 213 0.0 0.0 0.00 0.00 0.00 56 1013.7
20180813192334 88 230 0.0 0.0 0.00 0.00 0.00 58 1013.9
20180813190727 88 234 0.0 0.0 0.00 0.00 0.00 60 1014.1
20180813185107 88 236 0.0 0.0 0.00 0.00 0.00 64 1014.3
20180813183410 86 91 0.0 0.0 0.00 0.00 0.00 67 1014.5
20180813181753 86 70 0.0 0.0 0.00 0.00 0.00 70 1014.6
20180813180042 84 115 0.0 0.0 0.00 0.00 0.00 72 1014.8
20180813174417 84 37 0.0 0.0 0.00 0.00 0.00 75 1015.0
20180813172806 85 37 0.0 0.0 0.00 0.00 0.00 71 1015.0
20180813171213 84 46 0.0 0.0 0.00 0.00 0.00 69 1015.1
20180813165507 84 85 0.0 0.0 0.00 0.00 0.00 74 1015.3
20180813163838 85 158 0.0 0.0 0.00 0.00 0.00 71 1015.4
20180813162227 85 171 0.0 0.0 0.00 0.00 0.00 74 1015.5
20180813160558 84 49 0.0 0.0 0.00 0.00 0.00 77 1015.6
20180813154926 83 62 0.0 0.0 0.00 0.00 0.00 77 1015.7
20180813153246 82 19 0.0 0.0 0.00 0.00 0.00 79 1015.8
20180813151620 81 109 0.0 0.0 0.00 0.00 0.00 80 1015.9
20180813150000 80 24 0.0 0.0 0.00 0.00 0.00 81 1016.0
20180813144343 80 341 0.0 0.0 0.00 0.00 0.00 82 1015.9
20180813142721 79 306 0.0 0.0 0.00 0.00 0.00 85 1015.8
20180813141036 77 331 0.0 0.0 0.00 0.00 0.00 86 1015.7